TimeAKST,TemperatureF,Dew PointF,Humidity,Sea Level PressureIn,VisibilityMPH,Wind Direction,Wind SpeedMPH,Gust SpeedMPH,PrecipitationIn,Events,Conditions,WindDirDegrees,DateUTC
12:53 AM,-25.1,-29.0,82,30.07,10.0,NE,8.1,-,N/A,,Unknown,50,2013-02-14 09:53:00
1:53 AM,-26.0,-29.9,81,30.07,10.0,NNE,9.2,-,N/A,,Clear,30,2013-02-14 10:53:00
2:39 AM,-25.6,-29.2,83,30.06,10.0,NE,13.8,-,N/A,,Scattered Clouds,40,2013-02-14 11:39:00
3:13 AM,-25.6,-29.2,83,30.05,10.0,NE,13.8,-,N/A,,Mostly Cloudy,40,2013-02-14 12:13:00
3:53 AM,-25.1,-29.0,82,30.05,9.0,NE,12.7,-,N/A,,Scattered Clouds,50,2013-02-14 12:53:00
4:53 AM,-26.0,-29.9,81,30.04,10.0,NE,13.8,-,N/A,,Clear,40,2013-02-14 13:53:00
5:14 AM,-25.6,-29.2,83,30.03,10.0,NE,11.5,-,N/A,,Partly Cloudy,50,2013-02-14 14:14:00
5:28 AM,-25.6,-29.2,83,30.02,10.0,NE,12.7,-,N/A,,Mostly Cloudy,40,2013-02-14 14:28:00
5:53 AM,-26.0,-29.9,81,30.03,10.0,NE,13.8,-,N/A,,Mostly Cloudy,40,2013-02-14 14:53:00
6:53 AM,-26.0,-29.9,81,30.02,10.0,NE,13.8,-,N/A,,Clear,40,2013-02-14 15:53:00
7:53 AM,-25.1,-29.0,82,30.01,9.0,NE,13.8,-,N/A,,Mostly Cloudy,40,2013-02-14 16:53:00
8:53 AM,-23.1,-27.9,78,30.01,6.0,NE,12.7,-,N/A,,Haze,40,2013-02-14 17:53:00
9:53 AM,-23.1,-27.0,82,29.99,3.0,NE,16.1,-,N/A,,Overcast,40,2013-02-14 18:53:00
10:01 AM,-23.8,-27.4,83,29.98,2.0,NE,18.4,-,N/A,,Mostly Cloudy,40,2013-02-14 19:01:00
10:10 AM,-22.0,-27.4,76,29.98,-9999.0,North,-9999.0,-,N/A,,Mostly Cloudy,0,2013-02-14 19:10:00
10:26 AM,-22.0,-25.6,83,29.98,1.2,North,-9999.0,-,N/A,,Mostly Cloudy,0,2013-02-14 19:26:00
10:53 AM,-20.9,-26.0,77,29.98,1.5,North,-9999.0,-,N/A,,Haze,0,2013-02-14 19:53:00
11:00 AM,-20.2,-25.6,76,29.97,-9999.0,North,-9999.0,-,N/A,,Overcast,0,2013-02-14 20:00:00
11:29 AM,-20.2,-25.6,76,29.98,1.5,North,-9999.0,-,N/A,,Haze,0,2013-02-14 20:29:00
11:43 AM,-20.2,-23.8,83,29.97,1.5,North,-9999.0,-,N/A,,Overcast,0,2013-02-14 20:43:00
12:03 PM,-20.2,-23.8,83,29.97,1.5,NE,17.3,-,N/A,,Mist,50,2013-02-14 21:03:00
12:23 PM,-20.2,-23.8,83,29.97,1.5,NE,15.0,-,N/A,,Overcast,50,2013-02-14 21:23:00
12:53 PM,-20.0,-24.0,82,29.98,1.8,NE,15.0,-,N/A,,Overcast,50,2013-02-14 21:53:00
1:04 PM,-20.2,-23.8,83,29.97,2.0,NE,15.0,-,N/A,,Overcast,50,2013-02-14 22:04:00
1:07 PM,-20.2,-23.8,83,29.97,1.8,NE,15.0,-,N/A,,Overcast,50,2013-02-14 22:07:00
1:17 PM,-20.2,-23.8,83,29.96,2.0,NE,16.1,-,N/A,,Overcast,50,2013-02-14 22:17:00
1:37 PM,-18.4,-23.8,76,29.95,2.0,NE,17.3,-,N/A,,Haze,40,2013-02-14 22:37:00
1:53 PM,-18.9,-24.0,78,29.96,2.5,NE,17.3,-,N/A,,Haze,40,2013-02-14 22:53:00
2:37 PM,-18.4,-23.8,76,29.93,1.8,NE,19.6,-,N/A,,Haze,40,2013-02-14 23:37:00
2:53 PM,-18.0,-23.1,78,29.93,1.5,NE,20.7,-,N/A,,Haze,40,2013-02-14 23:53:00
3:09 PM,-18.4,-22.0,84,29.91,-9999.0,North,-9999.0,-,N/A,,Unknown,0,2013-02-15 00:09:00
3:30 PM,-16.6,-22.0,76,29.91,0.8,NE,23.0,-,N/A,,Haze,40,2013-02-15 00:30:00
3:49 PM,-18.4,-22.0,84,29.91,1.0,NE,20.7,-,N/A,,Overcast,40,2013-02-15 00:49:00
3:53 PM,-18.0,-22.0,82,29.92,1.0,NE,18.4,-,N/A,,Overcast,40,2013-02-15 00:53:00
4:19 PM,-16.6,-20.2,84,29.90,0.8,NE,20.7,-,N/A,,Overcast,40,2013-02-15 01:19:00
4:53 PM,-17.0,-20.9,82,29.90,0.8,NE,17.3,-,N/A,,Overcast,40,2013-02-15 01:53:00
4:59 PM,-16.6,-20.2,84,29.89,-9999.0,NE,20.7,24.2,N/A,,Unknown,40,2013-02-15 01:59:00
5:20 PM,-16.6,-20.2,84,29.89,1.0,NE,18.4,-,N/A,,Mist,40,2013-02-15 02:20:00
5:41 PM,-16.6,-20.2,84,29.88,1.2,NNE,16.1,-,N/A,,Overcast,30,2013-02-15 02:41:00
5:47 PM,-16.6,-20.2,84,29.88,-9999.0,North,-9999.0,-,N/A,,Unknown,0,2013-02-15 02:47:00
5:53 PM,-17.0,-20.9,82,29.88,-9999.0,North,-9999.0,-,N/A,,Unknown,0,2013-02-15 02:53:00
6:20 PM,-16.6,-20.2,84,29.89,1.2,North,-9999.0,-,N/A,,Haze,0,2013-02-15 03:20:00
6:46 PM,-16.6,-20.2,84,29.89,-9999.0,North,-9999.0,-,N/A,,Unknown,0,2013-02-15 03:46:00
6:53 PM,-16.1,-20.9,79,29.89,1.5,North,-9999.0,-,N/A,,Haze,0,2013-02-15 03:53:00
7:04 PM,-16.6,-20.2,84,29.89,-9999.0,North,-9999.0,-,N/A,,Unknown,0,2013-02-15 04:04:00
7:15 PM,-16.6,-20.2,84,29.89,1.5,North,-9999.0,-,N/A,,Mist,0,2013-02-15 04:15:00
7:36 PM,-16.6,-20.2,84,29.89,-9999.0,North,-9999.0,-,N/A,,Overcast,0,2013-02-15 04:36:00
7:43 PM,-16.6,-20.2,84,29.88,1.8,North,-9999.0,-,N/A,,Overcast,0,2013-02-15 04:43:00
7:53 PM,-16.1,-20.0,82,29.89,1.8,North,-9999.0,-,N/A,,Overcast,0,2013-02-15 04:53:00
8:53 PM,-15.0,-18.9,82,29.90,1.8,North,-9999.0,-,N/A,,Overcast,0,2013-02-15 05:53:00
9:18 PM,-14.8,-18.4,84,29.90,2.0,North,-9999.0,-,N/A,,Overcast,0,2013-02-15 06:18:00
9:53 PM,-15.0,-18.9,82,29.91,1.8,North,-9999.0,-,N/A,,Overcast,0,2013-02-15 06:53:00
10:43 PM,-14.8,-18.4,84,29.91,2.0,North,-9999.0,-,N/A,,Overcast,0,2013-02-15 07:43:00
10:51 PM,-14.8,-18.4,84,29.91,1.8,North,-9999.0,-,N/A,,Overcast,0,2013-02-15 07:51:00
10:53 PM,-15.0,-18.9,82,29.92,1.8,North,-9999.0,-,N/A,,Overcast,0,2013-02-15 07:53:00
11:53 PM,-15.0,-18.9,82,29.95,1.5,NNE,12.7,-,N/A,,Overcast,30,2013-02-15 08:53:00